Change the Weather History Date:

Wednesday, February 26, 2014

  Actual Average Record
Temperature  
Mean Temperature 82 °F -  
Max Temperature 91 °F 90 °F 96 °F (2013)
Min Temperature 73 °F 76 °F 73 °F (2003)
Cooling Degree Days 17    
Growing Degree Days 32 (Base 50)    
Moisture  
Dew Point 67 °F    
Average Humidity 58    
Maximum Humidity 89    
Minimum Humidity 36    
Precipitation  
Precipitation 0.00 in - - ()
Sea Level Pressure  
Sea Level Pressure 29.87 in    
Wind  
Wind Speed 7 mph ()    
Max Wind Speed 10 mph    
Max Gust Speed -    
Visibility 6.0 miles    
Events      
Averages and records for this station are not official NWS values.
T = Trace of Precipitation, MM = Missing Value Source: Averaged Metar Reports

Daily Weather History Graph

Daily Weather History Graph

Search for Another Location

Airport or City:

Trip Planner

Search our weather history database for the weather conditions in past years. The results will help you decide how hot, cold, wet, or windy it might be!

Date:

Astronomy

Feb. 26, 2014 Rise Set
Actual Time 6:17 AM ICT 6:09 PM ICT
Civil Twilight 5:56 AM ICT 6:31 PM ICT
Nautical Twilight 5:31 AM ICT 6:55 PM ICT
Astronomical Twilight 5:06 AM ICT 7:20 PM ICT
Moon 3:10 AM ICT (2/26) 3:09 PM ICT (2/26)
Length of Visible Light 12h 35m
Length of Day
11h 52m
Waning Crescent, 14% of the Moon is Illuminated
Feb 26
Waning Crescent
Mar 1
New
Mar 8
First Quarter
Mar 17
Full
Mar 24
Last Quarter

Hourly Weather History & Observations

Time (ICT) Temp. Heat Index Dew Point Humidity Pressure Visibility Wind Dir Wind Speed Gust Speed Precip Events Conditions
12:30 AM 78.8 °F - 66.2 °F 65% 29.89 in 5.6 mi SSW 4.6 mph - N/A   Unknown
1:00 AM 77.0 °F - 66.2 °F 69% 29.89 in 5.6 mi SSE 8.1 mph - N/A   Unknown
6:00 AM 73.4 °F - 69.8 °F 88% 29.89 in 5.6 mi South 9.2 mph - N/A   Scattered Clouds
7:00 AM 74 °F - 71 °F 88% 29.95 in 6 mi South 4.5 mph - -   Partly Cloudy
7:00 AM 75.2 °F - 71.6 °F 89% 29.92 in 5.6 mi South 6.9 mph - N/A   Scattered Clouds
7:30 AM 77.0 °F - 71.6 °F 83% 29.92 in 5.6 mi SSE 8.1 mph - N/A   Scattered Clouds
8:00 AM 77.0 °F - 71.6 °F 83% 29.95 in 5.6 mi South 10.4 mph - N/A   Scattered Clouds
8:30 AM 78.8 °F - 69.8 °F 74% 29.95 in 6.2 mi South 9.2 mph - N/A   Scattered Clouds
9:00 AM 80.6 °F 83.9 °F 69.8 °F 70% 29.95 in 6.2 mi SSE 10.4 mph - N/A   Scattered Clouds
9:30 AM 82.4 °F 85.4 °F 68.0 °F 62% 29.95 in 6.2 mi South 10.4 mph - N/A   Scattered Clouds
10:00 AM 84.2 °F 87.3 °F 68.0 °F 58% 29.95 in 6.2 mi SSE 9.2 mph - N/A   Scattered Clouds
10:30 AM 84.2 °F 87.3 °F 68.0 °F 58% 29.95 in 6.2 mi South 6.9 mph - N/A   Scattered Clouds
11:00 AM 84.2 °F 86.6 °F 66.2 °F 55% 29.95 in 6.2 mi SSE 9.2 mph - N/A   Scattered Clouds
11:30 AM 87.8 °F 90.4 °F 66.2 °F 49% 29.92 in 6.2 mi South 8.1 mph - N/A   Scattered Clouds
12:00 PM 89.6 °F 92.2 °F 66.2 °F 46% 29.89 in 6.2 mi SW 10.4 mph - N/A   Scattered Clouds
12:30 PM 89.6 °F 91.1 °F 64.4 °F 43% 29.89 in 6.2 mi South 5.8 mph - N/A   Scattered Clouds
1:00 PM 89.6 °F 91.1 °F 64.4 °F 43% 29.86 in 6.2 mi SE 5.8 mph - N/A   Scattered Clouds
1:30 PM 89.6 °F 92.2 °F 66.2 °F 46% 29.83 in 6.2 mi SSE 5.8 mph - N/A   Scattered Clouds
2:00 PM 91.4 °F 93.2 °F 64.4 °F 41% 29.80 in 6.2 mi SSE 4.6 mph - N/A   Partly Cloudy
2:30 PM 91.4 °F 93.2 °F 64.4 °F 41% 29.80 in 6.2 mi South 10.4 mph - N/A   Partly Cloudy
3:00 PM 91.4 °F 93.2 °F 64.4 °F 41% 29.77 in 6.2 mi South 9.2 mph - N/A   Scattered Clouds
3:30 PM 91.4 °F 91.4 °F 60.8 °F 36% 29.77 in 6.2 mi ESE 5.8 mph - N/A   Scattered Clouds
4:00 PM 91.4 °F 93.2 °F 64.4 °F 41% 29.77 in 6.2 mi ESE 6.9 mph - N/A   Scattered Clouds
4:30 PM 91.4 °F 93.2 °F 64.4 °F 41% 29.77 in 6.2 mi SSE 9.2 mph - N/A   Partly Cloudy
5:00 PM 89.6 °F 91.1 °F 64.4 °F 43% 29.77 in 6.2 mi SSE 9.2 mph - N/A   Partly Cloudy
5:30 PM 89.6 °F 92.2 °F 66.2 °F 46% 29.80 in - SSE 8.1 mph - N/A   Clear
6:00 PM 87.8 °F 90.4 °F 66.2 °F 49% 29.80 in - SSE 9.2 mph - N/A   Clear
6:30 PM 86.0 °F 88.2 °F 66.2 °F 51% 29.80 in 5.6 mi SSE 9.2 mph - N/A   Clear
7:00 PM 84.2 °F 86.6 °F 66.2 °F 55% 29.83 in 5.6 mi SSE 6.9 mph - N/A   Clear
7:30 PM 84.2 °F 87.3 °F 68.0 °F 58% 29.83 in 5.6 mi SSE 8.1 mph - N/A   Partly Cloudy
8:00 PM 84.2 °F 87.3 °F 68.0 °F 58% 29.83 in 5.6 mi SSE 6.9 mph - N/A   Unknown
9:00 PM 82.4 °F 85.4 °F 68.0 °F 62% 29.86 in 6.2 mi SSE 9.2 mph - N/A   Clear
9:30 PM 82.4 °F 85.4 °F 68.0 °F 62% 29.86 in 6.2 mi South 8.1 mph - N/A   Clear
10:00 PM 80.6 °F 83.2 °F 68.0 °F 65% 29.89 in 6.2 mi South 8.1 mph - N/A   Clear
10:30 PM 80.6 °F 83.2 °F 68.0 °F 65% 29.89 in 6.2 mi South 8.1 mph - N/A   Clear
11:00 PM 80.6 °F 83.2 °F 68.0 °F 65% 29.89 in 6.2 mi SSE 8.1 mph - N/A   Clear
11:30 PM 78.8 °F - 68.0 °F 69% 29.89 in 6.2 mi SSE 9.2 mph - N/A   Clear